This demonstration page uses our WeatherBlox Daily Observations layout. Learn more.

Left ArrowRight Arrow

Hourly Observations for November 30, 2021

Temp ( °F °C ) Dew Point ( °F °C ) Humidity (%) Winds ( mph kmh ) Pressure ( in mb ) Visibility ( mi km ) Precip ( " mm )
12:56 am 00:56 Clear 37 2.8 27 -2.8 67 67 NW 6 9 30.07 1018 10 16 N/A
1:56 am 01:56 Clear 37 2.8 28 -2.2 70 70 WNW 9 15 30.08 1019 10 16 N/A
2:56 am 02:56 Clear 38 3.3 28 -2.2 68 68 NW 6 9 30.10 1019 10 16 N/A
3:56 am 03:56 Clear 37 2.8 29 -1.7 73 73 NW 7 11 30.11 1020 10 16 N/A
4:56 am 04:56 Clear 38 3.3 30 -1.1 73 73 NNW 7 11 30.13 1020 10 16 N/A
5:56 am 05:56 Clear 41 5 32 undefined 70 70 N 8 13 30.16 1021 10 16 N/A
6:56 am 06:56 Clear 39 3.9 32 undefined 76 76 NNE 7 11 30.18 1022 10 16 N/A
7:56 am 07:56 Sunny 40 4.4 32 undefined 73 73 NW 8 13 30.21 1023 10 16 N/A
8:56 am 08:56 Partly Cloudy 40 4.4 32 undefined 73 73 NW 7 11 30.24 1024 10 16 N/A
9:56 am 09:56 Cloudy 42 5.6 34 1.1 73 73 NNW 5 7 30.28 1025 10 16 N/A
10:56 am 10:56 Sunny 49 9.4 35 1.7 59 59 ENE 3 6 30.25 1024 10 16 N/A
11:56 am 11:56 Sunny 54 12.2 35 1.7 49 49 SSW 5 7 30.20 1023 10 16 N/A
12:56 pm 12:56 Sunny 57 13.9 36 2.2 45 45 VRB 6 9 30.15 1021 10 16 N/A
1:56 pm 13:56 Partly Cloudy 59 15 35 1.7 41 41 S 10 17 30.12 1020 10 16 N/A
2:56 pm 14:56 Sunny 59 15 35 1.7 41 41 SSW 9 15 30.10 1019 10 16 N/A
3:56 pm 15:56 Sunny 58 14.4 35 1.7 42 42 SSW 13 20 30.08 1019 10 16 N/A
4:56 pm 16:56 Sunny 52 11.1 34 1.1 50 50 SSW 9 15 30.06 1018 10 16 N/A
5:56 pm 17:56 Clear 48 8.9 34 1.1 58 58 SSW 7 11 30.06 1018 10 16 N/A
6:56 pm 18:56 Clear 48 8.9 34 1.1 58 58 S 9 15 30.03 1017 10 16 N/A
7:56 pm 19:56 Clear 48 8.9 34 1.1 58 58 S 10 17 30.01 1016 10 16 N/A
8:56 pm 20:56 Clear 48 8.9 35 1.7 61 61 SSW 7 11 30.01 1016 10 16 N/A
9:56 pm 21:56 Clear 48 8.9 36 2.2 63 63 SW 5 7 30.01 1016 10 16 N/A
10:56 pm 22:56 Clear 48 8.9 36 2.2 63 63 W 5 7 29.99 1016 10 16 N/A
11:56 pm 23:56 Mostly Clear 50 10 37 2.8 61 61 WSW 12 19 29.97 1015 10 16 N/A

Powered by AerisWeather